User: anonymous   Login
Location: F?ge?el
(45.8833°N, 22.5833°E)
Time: 13:37:41
(UTC+00:00)
Language:

BREEZE-M DEB (TANK) - Orbit

View from above orbital plane
View from above orbital plane
View from above satellite
View from above satellite

Ground track
Ground track

The orbit is defined by the following mean orbital elements,

1 28870U          26021.77520752 +.00000000 +00000-0 +14591-2 0 00006
2 28870  49.3467 211.3835 5381658  90.3348 328.4099  4.98371731    04
Epoch (UTC): 21 January 2026 18:36:17
Eccentricity: 0.5381658
inclination: 49.3467°
perigee height: 308 km
apogee height: 15891 km
right ascension of ascending node: 211.3835°
argument of perigee: 90.3348°
revolutions per day: 4.98371731
mean anomaly at epoch: 328.4099°

The dashed part of the orbit path shows where the satellite is in the earth's shadow,  

DLR